GFSNW_sfc_30mbdewp_219.txt.gz
Dewpoint
48 47 42 40 41 43 40 33 -6 31 38 26 29 26 27 29 29 30 28 28 26 25 25 23 20 18 24 27 26 23 25 24 22 20 22 24 28 25 25 20 18 19 18 18
48 47 42 40 41 43 38 26 28 35 33 13 25 27 28 29 27 27 28 27 28 27 26 22 23 23 28 29 26 24 25 19 16 12 21 24 22 22 21 23 21 19 18 17
49 47 42 40 40 42 38 26 2 25 32 31 25 24 24 24 29 28 29 29 29 28 26 26 24 24 29 28 29 32 28 24 20 14 15 23 22 23 24 23 21 20 20 20
50 47 42 40 40 42 37 27 22 30 6 23 28 26 26 25 23 28 27 28 28 27 25 25 24 27 25 25 28 28 28 24 24 24 25 25 24 24 23 22 21 19 17 18
50 48 43 40 40 42 35 23 20 30 24 26 23 22 19 24 26 27 25 27 29 26 26 26 25 23 22 22 27 26 26 23 25 22 21 23 18 16 16 18 20 20 20 20
51 48 43 41 40 40 33 35 33 15 12 22 19 16 20 26 27 29 31 28 24 23 24 24 22 21 21 21 20 21 19 20 20 13 19 16 7 10 14 15 22 22 21 24
51 47 44 42 41 39 35 35 29 8 -13 16 18 21 26 27 27 25 26 21 20 20 22 22 21 21 20 20 20 21 18 22 19 15 17 5 6 17 18 22 27 28 24 18
51 47 44 41 41 41 37 38 30 19 -2 17 19 18 19 20 21 20 19 20 20 23 22 18 14 10 11 16 18 18 20 19 15 12 15 13 14 20 21 21 24 30 25 19
51 47 44 42 41 42 38 38 34 26 6 7 22 20 20 19 19 20 20 23 24 23 19 18 11 4 10 9 18 18 19 20 16 18 14 10 17 24 24 23 21 25 26 26
50 47 44 43 42 42 39 40 37 31 15 26 26 22 22 23 22 19 22 23 19 21 16 14 13 12 18 13 16 20 17 18 17 17 16 18 22 23 23 19 19 26 26 26
49 46 44 44 43 43 40 40 40 34 31 31 32 30 27 26 24 18 20 18 21 19 17 17 18 20 20 17 17 15 18 19 17 17 16 13 18 15 12 21 25 24 23 18
48 46 44 44 43 43 42 38 41 39 33 30 33 31 30 31 28 26 27 20 22 23 22 22 20 18 17 15 9 13 6 13 12 18 16 14 12 12 15 19 20 16 16 16
46 44 43 43 43 42 41 39 38 34 30 25 23 22 23 30 31 31 27 27 26 24 25 22 20 16 19 12 13 13 12 15 12 11 8 11 15 16 19 20 20 20 19 22
45 42 43 44 42 42 40 38 37 31 28 2 13 22 18 20 21 27 29 25 26 27 25 23 21 18 19 17 14 15 14 15 12 11 12 18 15 17 20 21 22 20 19 19
43 45 44 41 40 42 38 37 36 32 13 7 19 21 21 21 20 22 28 27 26 24 23 23 18 22 19 18 17 16 15 16 15 14 18 19 19 20 20 21 18 17 18 18
44 41 41 40 41 37 32 21 30 33 28 10 1 22 20 21 20 20 23 25 24 24 21 20 20 21 16 13 13 19 20 21 21 19 20 18 18 18 19 17 17 18 18 19
42 43 41 38 35 34 27 18 26 34 30 18 10 13 19 21 22 24 20 22 21 22 20 19 18 19 21 19 15 19 19 19 18 18 18 15 16 16 18 18 17 17 17 18
40 38 36 36 34 32 30 35 34 32 27 23 13 13 16 20 17 18 24 22 23 23 20 24 22 22 21 17 19 19 18 18 17 17 18 18 18 17 16 16 16 17 17 18
37 36 34 31 31 28 32 36 32 31 24 17 16 6 8 20 21 22 24 25 21 25 22 22 23 20 16 18 19 18 18 18 17 18 17 16 15 15 15 16 17 17 17 18
36 28 25 26 31 35 30 22 19 20 21 21 16 20 14 20 19 18 21 19 21 17 19 24 20 19 23 20 20 19 18 18 18 16 14 15 14 15 15 16 17 19 19 20
26 25 26 31 32 23 19 15 13 16 14 20 19 19 18 23 17 17 21 17 17 14 16 19 17 15 17 20 18 18 18 18 18 17 17 17 17 17 17 16 17 18 20 20
25 28 28 23 18 15 7 10 15 14 12 19 20 22 20 20 24 19 18 16 15 11 19 19 13 17 19 18 17 17 17 17 17 17 17 17 16 17 18 18 19 19 20 21
21 17 15 12 14 3 -2 -3 9 11 17 21 19 15 17 17 20 19 17 16 13 16 15 14 14 18 17 17 17 17 17 16 16 16 16 16 16 16 17 18 19 19 20 21
5 1 -1 2 4 7 11 10 14 20 20 17 17 17 16 17 16 16 13 14 16 13 11 11 15 17 17 16 16 16 15 16 16 16 16 15 16 16 17 18 19 19 18 19
6 4 -3 10 15 19 19 19 20 19 17 17 15 15 14 14 14 13 14 13 11 11 10 15 17 16 15 15 15 15 15 15 15 16 16 15 16 15 16 19 19 19 19 18
14 13 14 18 17 18 19 19 19 18 17 15 12 11 11 10 11 11 10 10 9 11 13 17 17 16 14 14 14 15 16 15 15 15 16 15 15 15 16 17 18 19 18 17
15 16 17 16 16 17 18 19 19 16 14 12 11 9 8 9 10 11 11 11 11 13 13 16 16 16 15 15 15 15 15 14 14 15 16 15 15 15 15 15 17 18 19 18

GFSNW_sfc_30mbdewp_222.txt.gz
Dewpoint
50 48 47 42 40 43 39 26 -9 24 36 22 29 25 27 30 29 29 28 28 26 26 26 24 21 19 25 29 27 24 26 24 21 18 23 24 26 25 24 20 18 20 19 17
51 49 47 41 40 43 36 22 26 32 30 9 21 26 28 29 26 26 27 27 28 27 26 22 23 24 28 28 27 25 25 19 16 11 21 22 22 22 22 24 22 20 19 16
51 49 47 41 39 43 36 21 1 21 31 30 23 21 21 23 29 28 29 28 29 27 26 26 24 24 28 27 28 32 29 24 20 11 12 22 23 24 24 24 21 19 19 19
52 50 48 42 39 42 34 23 17 29 5 16 27 24 24 22 20 28 28 28 28 26 24 25 24 26 24 24 28 28 28 24 24 24 25 25 23 22 23 23 22 20 17 19
53 51 48 43 40 42 31 10 17 29 20 26 23 21 16 21 24 26 25 26 28 27 26 25 24 24 23 20 26 26 21 21 21 17 18 21 18 17 15 15 17 19 20 20
54 51 48 44 41 39 30 35 33 17 8 22 18 13 15 22 27 28 30 29 26 24 25 26 25 24 23 20 20 18 16 16 19 10 19 16 7 10 14 16 26 24 22 22
54 52 49 45 42 40 34 35 28 7 -8 14 16 17 21 26 26 24 27 22 22 21 22 22 21 21 21 20 20 20 17 22 19 14 16 2 6 21 19 25 27 28 25 24
55 53 50 46 42 41 36 37 26 10 -6 11 15 16 23 24 22 22 22 22 21 23 22 17 12 10 12 17 18 18 20 18 13 11 13 11 19 21 21 21 24 27 25 25
55 53 50 46 43 43 39 38 33 23 6 16 19 18 20 17 18 19 20 22 24 22 19 16 9 2 9 9 18 20 20 20 15 17 13 7 18 17 22 23 20 24 25 24
55 53 50 46 44 43 41 40 39 31 20 26 27 22 22 23 22 19 22 22 20 21 16 13 12 11 18 11 14 19 17 18 16 16 14 16 14 17 17 18 17 22 23 23
55 52 49 46 45 44 40 40 41 33 30 32 34 33 28 27 25 20 21 17 20 19 16 16 16 17 19 17 18 17 18 17 15 17 15 11 11 10 5 15 19 20 18 19
54 50 47 45 45 43 42 38 42 40 33 32 36 34 30 30 29 25 26 20 21 21 20 21 21 19 18 14 6 12 12 13 14 18 16 13 13 13 14 18 19 20 21 21
51 48 46 45 44 41 40 38 38 36 32 31 31 28 23 28 30 31 25 27 25 23 25 22 20 14 17 10 12 12 12 15 12 10 6 12 17 17 19 21 20 20 21 19
48 46 45 44 43 41 39 37 39 35 31 23 16 24 19 22 22 29 28 25 27 27 25 22 20 16 19 16 13 13 14 16 14 13 13 18 17 18 19 18 19 20 17 17
46 45 44 44 42 40 39 38 37 34 22 19 21 22 23 23 21 26 28 26 25 24 23 22 19 22 19 18 17 17 15 17 16 14 18 19 19 18 18 18 17 16 17 17
46 44 45 43 40 39 36 31 36 35 30 11 2 22 20 21 20 23 26 26 25 24 22 21 21 21 17 12 11 18 20 20 20 18 19 18 18 17 18 17 17 17 17 17
45 43 43 41 39 35 27 22 26 34 30 13 8 15 20 21 23 23 21 22 22 22 21 19 18 19 21 17 14 19 19 19 18 18 17 15 16 16 17 17 15 15 16 16
43 42 42 39 35 33 31 35 34 31 25 20 8 12 17 20 18 21 24 20 22 21 20 24 21 21 21 16 19 18 19 18 17 17 18 17 17 16 15 14 15 15 15 15
41 38 34 30 30 28 33 33 30 29 22 13 13 7 11 21 21 23 25 25 21 25 22 22 22 20 16 18 18 18 19 18 17 18 17 15 15 14 14 14 15 15 15 16
32 29 26 26 32 35 28 19 19 19 19 18 15 20 15 20 19 19 20 20 20 17 19 24 20 19 21 20 19 18 18 18 18 15 14 15 13 13 14 15 15 15 17 18
27 27 27 32 30 22 18 13 10 14 11 18 19 19 19 23 16 17 21 17 16 14 16 19 17 15 17 19 17 17 17 17 17 17 17 16 16 15 15 15 16 17 17 18
26 29 27 22 18 14 4 7 14 14 12 19 19 21 20 21 23 18 18 15 14 10 19 18 13 16 18 17 17 17 16 16 16 16 16 16 16 16 16 16 17 17 19 19
20 15 14 11 13 0 -6 -8 7 8 16 21 19 16 17 19 19 17 16 14 12 16 15 13 13 18 17 16 16 16 16 16 15 15 15 16 15 16 16 16 17 18 18 18
4 5 9 5 8 5 7 7 12 20 21 17 17 16 17 17 15 15 13 14 15 12 10 11 14 16 16 15 15 15 14 14 14 14 15 15 15 15 15 16 18 18 17 18
3 5 -0 10 15 18 18 20 19 18 17 17 15 14 14 13 13 12 13 12 11 11 10 13 16 16 14 14 13 13 14 14 13 14 14 15 15 15 15 16 18 18 17 17
14 14 15 18 17 17 19 18 18 18 16 14 12 11 9 10 10 10 10 9 9 10 12 15 16 15 14 13 13 14 14 12 12 13 14 15 14 14 14 16 17 17 18 16
16 16 18 17 18 18 18 19 19 16 14 11 10 7 7 8 9 10 10 10 10 12 12 13 14 13 15 14 14 14 13 12 12 13 13 13 13 13 14 13 15 17 18 17

GFSNW_sfc_30mbdewp_225.txt.gz
Dewpoint
54 51 49 45 40 42 35 20 1 21 33 19 29 22 27 29 28 29 27 28 26 25 26 24 21 19 24 29 27 23 26 23 20 17 22 24 26 24 23 19 18 20 19 17
54 52 49 44 39 41 32 17 20 27 26 9 16 25 27 29 26 26 26 26 28 28 26 20 23 24 27 28 28 26 25 20 15 10 20 22 22 22 22 24 22 20 17 15
55 52 50 44 38 42 32 17 11 18 30 29 20 16 18 21 29 28 29 28 29 27 25 26 24 23 28 26 28 32 30 25 18 9 10 20 21 23 24 24 21 18 19 18
55 53 50 47 39 41 28 20 15 27 12 13 24 22 21 19 16 27 28 27 28 26 23 24 24 25 24 24 28 27 27 25 24 24 24 25 24 24 23 22 21 19 17 19
55 53 51 47 41 41 25 12 17 28 16 25 22 19 14 16 21 23 24 26 27 27 25 23 22 25 23 20 24 24 18 19 19 16 15 17 16 17 17 17 18 21 21 19
56 54 51 49 43 36 26 34 33 19 16 21 17 10 9 16 25 26 29 28 28 26 26 27 27 26 25 21 19 17 16 14 18 8 17 15 7 12 12 19 25 24 22 21
56 55 52 49 45 39 34 35 30 10 14 14 15 14 17 21 26 23 27 25 23 22 22 22 21 21 21 21 20 20 17 20 20 13 14 2 8 23 23 25 27 27 25 23
56 55 53 50 46 43 38 37 29 16 10 10 11 13 21 25 25 25 24 25 23 23 21 16 9 11 14 17 19 19 20 19 12 10 11 10 20 16 18 20 23 21 20 22
56 56 54 51 48 44 42 40 37 25 17 17 19 21 24 26 23 19 20 23 24 21 18 14 6 1 7 9 19 20 20 19 14 16 10 3 16 13 19 23 19 19 23 21
56 55 54 51 49 45 42 40 40 34 29 31 29 28 28 28 25 21 22 22 20 21 17 12 11 10 16 10 12 17 17 18 16 15 15 15 10 11 16 18 14 19 20 19
54 55 54 51 48 45 42 40 42 35 33 32 34 34 31 30 29 24 24 20 19 20 18 17 15 15 17 18 17 19 17 16 15 16 15 10 12 9 6 12 19 19 19 19
53 54 53 50 47 45 42 38 41 39 35 32 37 37 34 31 30 29 27 21 24 25 21 21 21 19 19 15 7 13 13 17 15 16 15 12 14 14 16 20 19 18 18 19
52 54 51 48 46 44 41 38 38 36 32 31 32 32 31 30 30 32 27 28 26 24 25 23 20 15 17 10 12 12 12 15 12 9 8 15 18 17 19 19 17 18 20 18
52 51 48 46 45 42 39 37 38 35 32 28 23 24 20 25 26 31 29 27 27 27 25 22 20 14 19 14 13 12 13 16 14 13 14 16 17 18 18 17 18 17 16 16
52 48 47 45 43 40 39 38 37 33 30 23 21 22 24 24 27 30 27 27 25 24 23 21 18 22 18 18 18 17 16 16 14 12 18 19 18 18 17 17 16 16 16 16
48 47 45 43 40 39 37 32 37 36 30 25 21 22 20 21 24 27 26 26 25 24 22 21 21 22 19 14 10 18 19 19 20 17 18 18 17 17 17 16 16 16 15 15
46 45 43 40 38 34 28 29 31 36 28 11 12 16 19 21 23 22 23 22 23 23 21 19 18 19 21 16 13 19 18 19 18 18 17 15 16 15 16 16 15 15 15 15
45 43 40 36 34 33 29 34 35 31 24 18 8 12 17 20 20 21 24 20 22 21 20 22 19 21 21 16 19 18 18 18 17 17 18 17 17 16 15 14 14 14 14 14
42 38 33 32 30 27 30 32 29 27 21 9 11 7 11 21 22 23 25 25 18 25 21 22 21 19 16 17 17 17 18 17 17 17 16 15 15 14 14 14 14 14 14 15
35 31 29 27 33 34 27 18 18 17 17 16 14 19 15 19 19 20 20 20 20 16 19 24 20 19 20 19 18 17 17 17 17 15 14 14 13 13 14 14 14 15 15 16
29 28 27 32 28 20 18 11 8 12 9 17 19 18 18 22 16 18 21 17 16 14 16 18 16 15 18 18 17 17 16 16 16 16 16 16 16 15 15 14 15 15 16 16
29 31 28 23 18 12 8 5 12 12 9 18 18 21 20 22 23 18 18 15 14 11 19 17 13 16 18 17 16 16 16 15 15 16 15 15 15 15 16 16 15 16 17 17
21 22 18 15 13 10 3 -2 5 8 14 20 19 15 18 19 18 16 16 14 12 16 14 13 13 17 17 16 16 15 15 15 15 14 14 15 15 15 15 15 15 17 16 16
11 13 12 12 10 3 0 -0 7 17 20 18 16 16 16 16 14 14 13 13 15 11 10 10 13 15 16 15 14 14 13 13 13 13 13 13 14 14 15 15 16 17 16 17
9 9 11 7 15 17 18 19 18 18 17 16 14 13 14 13 13 12 13 12 10 10 10 12 15 15 14 14 13 12 12 12 11 11 12 12 12 13 13 14 16 17 16 16
14 15 15 18 16 17 18 17 17 18 14 14 12 10 9 9 9 10 9 8 8 10 12 14 15 14 13 13 12 12 12 11 11 11 12 12 11 11 12 14 16 16 16 16
15 16 19 18 17 17 18 19 18 16 14 9 10 6 6 7 9 9 8 10 10 12 12 13 13 12 13 13 12 13 12 11 11 12 12 12 12 11 11 12 14 16 16 17

GFSNW_sfc_30mbdewp_228.txt.gz
Dewpoint
55 54 51 48 43 40 33 22 20 26 34 20 28 23 27 29 28 29 28 28 26 25 26 23 21 19 23 28 28 24 26 23 18 15 22 24 25 22 22 17 17 21 20 14
55 55 52 47 40 39 30 25 19 28 32 15 16 25 27 29 26 26 26 26 28 28 25 18 22 24 27 28 29 26 25 19 12 12 21 23 22 23 23 23 23 18 14 11
55 55 52 47 39 40 31 21 26 24 30 29 17 12 16 19 29 28 29 27 29 27 24 26 22 23 28 27 28 32 31 24 14 5 6 18 19 21 23 22 18 15 15 15
55 55 53 48 42 39 27 23 21 27 26 19 22 21 19 16 16 28 28 27 28 25 20 23 23 25 25 25 27 27 26 16 20 22 23 24 24 23 23 23 22 17 12 13
56 55 53 49 43 40 35 28 21 27 16 24 20 18 16 16 18 22 23 24 26 27 23 18 13 23 23 19 22 24 19 16 19 14 13 14 15 14 15 17 18 16 17 17
56 56 53 50 44 43 33 34 32 24 26 21 18 16 14 16 22 25 29 28 27 27 26 27 26 26 24 22 18 16 16 13 13 7 15 13 5 11 12 15 19 19 18 22
57 56 54 50 46 45 41 36 31 28 33 21 20 14 15 18 24 21 27 29 26 22 22 22 21 21 20 20 20 21 16 17 17 13 12 3 15 25 24 21 25 25 21 18
56 56 55 52 49 45 43 39 35 30 32 20 14 17 21 28 28 29 28 26 24 23 21 15 9 10 14 18 19 19 20 18 13 11 9 8 18 14 17 17 23 21 19 17
54 56 55 53 50 47 43 40 39 34 33 27 20 20 26 26 27 27 24 23 25 22 18 13 17 15 8 9 19 20 20 19 14 14 10 2 16 13 12 18 16 17 17 16
52 54 55 54 51 48 44 41 41 37 36 33 28 28 31 31 29 24 21 22 22 21 18 19 19 17 15 9 13 17 18 18 16 13 13 13 11 10 18 15 13 17 17 17
52 53 55 54 52 48 43 40 42 39 36 33 34 34 32 31 30 27 25 23 21 20 22 22 14 14 16 18 17 18 16 16 15 15 14 11 13 10 9 15 17 16 16 16
51 52 53 54 51 47 42 38 42 41 38 34 37 37 35 31 30 27 26 26 24 27 23 22 22 20 20 17 10 15 16 17 16 16 14 13 15 15 18 17 16 15 16 16
51 51 53 52 49 44 41 39 39 37 33 32 32 32 35 30 29 32 29 29 30 29 27 27 23 19 18 11 12 12 12 15 13 11 10 14 16 17 18 16 16 16 16 15
51 51 53 50 47 42 40 38 38 35 33 30 26 24 25 26 27 33 32 31 30 28 27 25 21 15 18 12 13 12 13 15 13 11 13 15 17 18 17 16 16 15 15 15
51 52 50 48 44 40 39 38 36 35 33 27 21 22 24 24 28 30 28 28 27 26 23 23 21 21 18 19 18 16 17 14 11 6 18 17 16 17 16 15 15 15 15 14
50 50 48 44 41 39 37 33 37 34 31 25 21 22 21 22 28 27 27 26 26 25 23 21 21 22 20 14 8 17 20 19 19 17 18 17 17 16 16 15 15 14 15 14
49 47 44 42 39 35 31 31 35 34 27 15 17 18 20 23 23 23 24 23 24 24 22 20 19 20 21 16 10 18 18 18 18 18 16 14 15 15 15 15 14 14 14 14
46 43 41 38 35 32 32 36 35 30 21 20 13 15 19 20 21 19 23 21 22 22 20 21 17 20 21 16 18 18 18 17 17 17 17 16 16 15 14 14 14 14 13 13
42 38 34 32 31 27 31 31 27 27 22 11 14 9 12 22 23 24 24 24 17 24 19 20 20 18 16 17 18 17 17 16 16 16 16 15 14 14 14 14 14 14 14 14
36 33 29 28 32 32 28 20 18 17 18 18 14 20 17 21 21 22 22 22 20 17 19 24 20 16 19 18 17 17 17 16 16 15 14 14 14 14 14 14 14 14 15 15
32 29 27 31 27 19 18 13 10 12 10 18 20 18 19 23 18 19 22 19 18 15 16 18 16 15 17 18 16 16 16 16 15 16 16 15 15 16 15 15 15 15 15 15
31 30 29 25 20 14 17 11 11 11 6 19 19 21 21 23 23 19 19 16 15 12 20 17 13 15 17 17 16 16 15 15 15 15 15 15 14 15 16 15 15 15 16 16
27 26 22 22 15 15 14 11 3 8 15 20 20 18 20 20 19 17 17 15 13 17 15 13 14 16 16 16 15 15 14 14 13 13 13 13 13 14 14 15 15 15 16 16
24 19 13 15 9 7 4 1 6 16 20 20 17 17 17 17 15 15 14 14 15 12 10 11 14 16 16 15 14 14 13 12 12 12 12 12 12 12 13 15 16 16 15 16
19 19 14 8 15 16 17 18 18 18 18 17 15 15 16 14 13 13 13 12 10 11 11 13 15 16 14 14 14 13 13 12 11 11 11 11 11 12 12 13 15 16 16 16
18 16 15 17 16 17 18 17 17 18 15 16 14 11 9 9 10 11 10 9 8 11 14 15 15 14 13 13 12 12 12 11 11 11 11 12 11 11 11 11 13 15 16 15
15 16 19 19 18 17 18 18 17 16 15 9 11 5 6 9 9 9 9 10 11 14 14 14 13 13 12 12 12 13 12 12 11 11 12 12 12 12 12 12 13 15 15 17

GFSNW_sfc_30mbdewp_234.txt.gz
Dewpoint
54 54 54 54 51 45 45 41 39 38 40 28 25 24 26 27 26 26 25 25 24 22 20 19 17 17 22 27 28 24 24 22 18 16 21 22 21 19 18 16 17 19 20 18
54 54 54 54 49 42 40 41 33 34 37 30 25 23 25 26 25 24 23 22 25 24 21 18 19 21 27 27 27 29 28 18 14 16 21 22 21 20 21 21 22 20 19 16
54 54 54 54 49 42 40 37 35 36 32 28 25 24 19 22 29 26 26 24 26 23 21 21 21 20 26 28 27 30 28 23 17 14 15 17 16 17 19 21 20 18 18 16
55 55 55 54 49 42 41 38 33 29 34 27 27 23 22 21 21 26 26 24 24 22 20 21 19 19 19 22 29 26 24 19 16 16 16 16 17 18 18 18 19 20 19 19
55 55 55 54 50 42 47 43 35 27 24 24 27 24 26 23 21 19 22 23 23 23 22 22 23 22 21 20 22 18 21 18 16 13 13 12 11 11 11 12 13 17 19 17
56 55 55 54 50 46 47 37 29 33 36 29 28 27 28 23 20 24 26 26 23 23 26 23 22 21 19 18 17 18 18 14 16 16 15 13 8 19 20 12 12 16 16 21
56 56 55 54 51 48 48 39 33 39 39 35 33 30 20 20 21 20 28 29 29 28 24 24 25 23 20 19 18 17 17 15 19 17 14 8 20 22 23 22 23 25 24 20
56 56 55 55 52 49 47 40 41 41 39 34 34 30 25 28 29 28 29 32 33 25 27 20 19 16 13 16 19 18 18 17 18 15 12 12 15 15 14 14 22 19 17 16
53 54 55 55 53 50 46 42 45 44 40 37 35 34 31 32 30 31 30 29 29 29 23 18 18 20 21 19 19 20 19 19 18 15 14 11 14 13 13 14 16 16 15 14
51 51 52 53 54 51 47 43 45 44 41 38 35 36 35 32 33 34 29 27 26 23 20 20 19 21 19 18 14 17 19 19 17 16 17 16 13 11 19 14 14 15 15 15
51 51 51 52 53 51 47 42 44 45 42 38 36 36 35 34 34 34 32 28 23 21 21 21 22 22 17 15 15 17 16 17 17 17 17 13 14 12 12 15 15 15 15 15
50 51 51 52 53 49 45 40 44 43 41 37 38 38 37 35 34 34 30 28 23 25 23 24 25 22 20 17 17 18 15 16 21 20 20 14 15 15 16 16 15 15 15 15
50 50 51 51 52 48 45 41 41 40 37 35 35 34 36 33 30 33 28 29 28 28 31 30 28 23 23 18 18 12 16 15 16 15 12 13 14 17 17 16 15 15 15 15
48 50 51 51 51 47 43 41 42 39 37 35 29 26 28 27 28 34 33 32 34 33 33 29 27 23 21 17 15 10 15 14 11 11 11 14 16 17 16 15 15 15 15 15
46 48 50 52 49 44 42 41 40 38 37 33 25 24 23 23 28 34 34 35 33 31 28 27 25 26 21 20 17 15 15 12 10 11 17 16 16 16 15 15 15 15 15 15
45 46 49 49 45 42 40 37 37 32 32 29 27 22 21 27 28 32 34 34 33 30 29 27 22 22 20 15 10 16 19 18 18 17 17 17 17 15 16 15 15 15 16 15
47 47 48 45 43 38 37 36 38 31 29 27 24 22 21 25 25 26 26 26 26 26 25 22 20 19 20 17 11 16 18 18 17 17 16 14 16 15 15 15 15 15 15 15
48 48 45 41 39 36 33 33 30 30 21 26 21 21 20 23 21 22 24 24 24 25 24 21 17 20 19 16 17 18 18 17 16 16 16 16 15 15 15 15 15 15 15 15
45 41 38 35 33 33 30 30 29 29 28 22 23 18 19 21 22 23 22 21 20 23 20 15 16 15 15 18 18 18 17 16 16 16 16 15 16 15 15 15 16 16 16 16
39 36 32 29 32 34 31 25 24 24 23 22 20 22 17 22 22 22 22 23 20 19 19 23 19 16 18 17 17 16 16 16 16 15 15 15 15 15 15 15 15 16 16 17
34 29 28 34 31 24 22 17 18 19 13 21 20 21 18 23 21 21 22 21 21 14 19 18 18 17 18 18 17 16 16 15 15 15 15 15 14 13 13 14 15 16 16 16
32 32 33 28 25 23 20 13 16 13 13 20 20 21 23 24 24 21 20 19 17 13 19 17 14 16 17 18 16 16 15 14 14 13 13 13 12 12 12 13 14 15 16 16
31 28 25 26 21 19 18 15 13 14 18 22 21 20 22 22 23 20 19 15 13 17 15 13 15 17 17 16 16 15 14 14 13 13 14 13 12 12 13 13 14 14 15 16
29 25 21 20 17 18 19 18 15 20 21 21 22 20 20 21 19 19 15 17 16 13 11 12 16 17 16 16 15 15 15 14 13 13 13 12 12 12 13 13 13 14 14 16
25 26 19 17 18 18 20 20 20 23 23 20 18 18 19 17 13 17 15 12 10 10 12 15 16 15 14 14 14 14 13 12 12 12 12 11 12 12 11 12 12 14 14 15
23 19 15 17 16 16 18 20 19 22 21 19 18 14 13 10 14 10 10 10 9 14 16 17 16 14 14 13 13 12 12 12 12 12 12 12 12 12 12 12 12 14 15 15
20 18 20 20 18 19 21 20 19 20 20 15 15 5 5 13 11 11 12 13 14 16 15 16 13 13 12 11 12 14 13 12 12 12 11 12 13 12 12 12 12 14 14 14